Showing default

VRSS-2, 42954

Orbit data source: Space-Track

VRSS-2, 42954 is a payload satellite owned by ABAE (VE) in SSO that was launched on Mon, 09 Oct 2017 UTC via a CHANG ZHENG 2D launch vehicle from the Jiuquan Satellite Launch Center, China (JSC). Payload-class satellites include a variety of spacecraft equipped with specific instruments for various scientific and technological missions. These include communications satellites like Starlink; space stations such as the ISS; scientific satellites like the Hubble; Earth observation satellites from companies like Planet Labs, Umbra, and HawkEye 360; GPS; miniature CubeSats for education and research; and military/defense satellites.

Loading next visibility...
Identifier
42954, 2017-060A
Orbit
SSO
Last TLE update
4 hours ago
Origin
Manufacturer
DFH
Mission
Operational Civil Imaging
Bus & Motor
CAST-2000, AOCS
Mass
942 kg wet, ~900 kg dry
Launch date (UTC)
2017-10-09 (8 years ago)
Launch vehicle
CHANG ZHENG 2D
Launch site
Jiuquan Satellite Launch Center, China (JSC)
Object type
Payload
Rocket body
Debris
Shape & HBR
Box + 2 Pan, 7.9 m
Radar Cross Section
8.358 m², Large (>1 m²)

Expand to show TLE details & history

TLE from 4 hours ago
0 VRSS-2
1 42954U 17060A   25182.21345711  .00000702  00000-0  98377-4 0  9997
2 42954  97.7005 229.9196 0017830 162.1143 198.0701 14.80340262416512
Epoch: 2025-07-01T05:07Z
TLE epoch observation values (Epoch: 2025-07-01T05:07:22.694Z)
Latitude
-0°
Longitude
-126.43709°
Altitude
643.159 km
Speed
7.53 km/s
True Right ascension
15h 19m 40s
True Declination
0° 00' 00"
Sunlit
Object was in full shadow at epoch
Visualization orbit readout
Latitude
-80.27313°
Longitude
2.06115°
Altitude
659.043 km
Speed
7.525 km/s
Apparent Right ascension
08h 27m 40s
Apparent Declination
-69° 41' 09"
Sunlit
Object is in partial shadow
Visualization observer readout
Local Sidereal Time
21:11:36
Azimuth
172.474° S
Elevation
-59.672°
Doppler factor
1
Orbital elements
Apogee altitude
637.769 km
Perigee altitude
612.795 km
Semi-major axis
7,003.419 km
Eccentricity
0.00178
Inclination
97.7005°
RAAN
229.9196°
Arg. of periapsis
162.1143°
True anomaly
Unknown
Mean anomaly
198.0701°
Eccentric anomaly
Unknown
Mean motion
3.70321 °/min
Orbital period
97.21 mins
BSTAR
0.000098377
Loading maneuver chart data...
Loading SW <> Apogee altitude chart data...
Loading historical data...
Loading historical data...
Loading historical data...
Loading historical data...
Loading historical data...
Loading historical data...
Loading historical data...
Other satellites on launch #60 in the year 2017 (2017-10-09 UTC)

VRSS-2 Visibility forecast

Observer location: undefined°, undefined°

Span
Click to sort rows by Start time (UTC) header in descending order
Start Az.
Max El. time (UTC)
Max El. Az.
Max El.
End time (UTC)
End Az.
6 mins2025-07-01 15:26:18.299Z37.914° NE2025-07-01 15:29:18.299Z92.45° ESE27.917°2025-07-01 15:32:18.299Z153.076° SSE
4 mins2025-07-01 17:04:18.299Z316.034° NNW2025-07-01 17:05:18.299Z297.219° NW19.612°2025-07-01 17:08:18.299Z247.993° W
5 mins2025-07-02 02:22:18.299Z108.29° ESE2025-07-02 02:24:18.299Z71.336° E22.602°2025-07-02 02:27:18.299Z20.241° NNE
6 mins2025-07-02 03:58:18.299Z218.436° SW2025-07-02 04:00:18.299Z256.911° W25.249°2025-07-02 04:04:18.299Z323.634° NNW
|